Погода в Кривом

Россия / Алтайский край     53°41′02″N   80°09′12″E
темп.,
°C
ветер,
м/с
пор.,
м/с
влажн.,
%
обл.,
%
осадки,
мм/ч
давл.,
гПа
погр.,
м
14 апреля, ср
ср1401:000сз4692100 0.0 1037377
04:000з3696100 0.0 1036240
07:000з3796100 0.0 1036247
10:00+1зюз4999100 0.0 1035363
13:00+2зюз61299100 0.0 1033481
16:00+6зюз61486100 0.0 1030621
19:00+5зюз61481100 0.0 1028413
22:00+3зсз41295100 0.0 1028418
15 апреля, чт
чт1501:00+2з3899100 0.1 1028236
04:00+1з2399100 0.0 102876
07:00+1зюз2399100 0.3 102860
10:00+2зюз2499100 0.1 1028114
13:00+3зюз25100100 0.1 1027177
16:00+5з2499100 0.0 1026176
19:00+6зюз239637 0.0 102556
22:00+4ююз349650 0.0 102456
16 апреля, пт
пт1601:00+4юз359361 0.0 102379
04:00+4юз339860 0.0 102147
07:00+3юз369834 0.0 102091
10:00+8юз510915 0.0 1019301
13:00+14зюз610695 0.0 1018805
16:00+17зюз610516 0.0 10151444
19:00+15з48545 0.0 1014276
22:00+9ссз3778100 0.0 1015151
17 апреля, сб
сб1701:00+4ссв6118882 0.0 1017447
04:00+3св61185100 0.0 1018616
07:00+2св61087100 0.0 1019705
10:00+1всв686793 0.0 1020625
13:00+4всв4461100 0.0 1018890
16:00+5вюв116595 0.0 1017875
19:00+5з3461100 0.0 10161093
22:00+4з476482 0.0 1016370
18 апреля, вс
вс1801:00+1зюз23744 0.0 101548
04:00+1юз4977100 0.0 1015237
07:00+1з41077100 0.0 1015446
10:00+2сз3567100 0.0 1016688
13:00+4зсз2348100 0.0 10161061
16:00+6юз3442100 0.0 10141530
19:00+7ююз3553100 0.0 10111373
22:00+5ю61174100 0.1 1009607